This is the latest recevied weather packets stored in our database for station/object KB1WCR. If no packets are shown the sender has not sent any weather packets the latest 10 day(s).
| Time | Temp. | Humidity | Pressure | Rain* | Wind** | Luminosity | Snow |
|---|---|---|---|---|---|---|---|
| 1777431391 | 5° C | 61% | 1021.1 hPa | 0 mm | - | 0 W/m² | - |
| 1777431087 | 5° C | 61% | 1021.3 hPa | 0 mm | - | 0 W/m² | - |
| 1777430783 | 5° C | 64% | 1021.2 hPa | 0 mm | - | 0 W/m² | - |
| 1777430480 | 5° C | 69% | 1021.4 hPa | 0 mm | - | 0 W/m² | - |
| 1777430175 | 5° C | 65% | 1021.2 hPa | 0 mm | - | 0 W/m² | - |
| 1777429871 | 5° C | 65% | 1021.4 hPa | 0 mm | - | 0 W/m² | - |
| 1777429568 | 4.44° C | 64% | 1021.5 hPa | 0 mm | - | 0 W/m² | - |
| 1777429264 | 4.44° C | 68% | 1021.5 hPa | 0 mm | - | 0 W/m² | - |
| 1777428959 | 4.44° C | 68% | 1021.5 hPa | 0 mm | - | 0 W/m² | - |
| 1777428655 | 3.89° C | 64% | 1021.5 hPa | 0 mm | - | 0 W/m² | - |
| 1777428351 | 3.89° C | 63% | 1021.3 hPa | 0 mm | - | 0 W/m² | - |
| 1777428047 | 3.89° C | 63% | 1021.4 hPa | 0 mm | - | 0 W/m² | - |
| 1777427743 | 3.89° C | 66% | 1021.7 hPa | 0 mm | - | 0 W/m² | - |
| 1777427440 | 3.89° C | 61% | 1021.3 hPa | 0 mm | - | 0 W/m² | - |
| 1777427136 | 3.89° C | 62% | 1021.6 hPa | 0 mm | - | 0 W/m² | - |
| 1777426834 | 3.89° C | 61% | 1021.5 hPa | 0 mm | - | 0 W/m² | - |
| 1777426531 | 4.44° C | 63% | 1021.4 hPa | 0 mm | - | 0 W/m² | - |
| 1777426227 | 3.89° C | 62% | 1021.3 hPa | 0 mm | - | 0 W/m² | - |
| 1777425922 | 3.89° C | 60% | 1021.4 hPa | 0 mm | - | 0 W/m² | - |
| 1777425617 | 4.44° C | 58% | 1021.4 hPa | 0 mm | - | 0 W/m² | - |
| 1777425313 | 3.89° C | 56% | 1021.4 hPa | 0 mm | - | 0 W/m² | - |
| 1777425010 | 4.44° C | 58% | 1021.3 hPa | 0 mm | - | 0 W/m² | - |
| 1777424705 | 4.44° C | 60% | 1021.2 hPa | 0 mm | - | 0 W/m² | - |
| 1777424401 | 4.44° C | 60% | 1021.2 hPa | 0 mm | - | 0 W/m² | - |
| 1777424096 | 4.44° C | 55% | 1021.5 hPa | 0 mm | - | 0 W/m² | - |
* Rain latest hour (hover to see other rain measurements)
** Current wind speed in m/s (hover to see current wind gust speed)